Location: Garbet
(42.8837°N, 1.2115°E)
Time: 21:01:37
(UTC+00:00)

Okean 1 - Pass Details

Date: 13 December 2025
Orbit: 465 x 483 km, 82.5° (Epoch: 21 January)

Event Time Altitude Azimuth Distance (km) Brightness Sun altitude
Rises 17:29:15 0° 162° (SSE) 2,528 6.7 -12.0°
Reaches altitude 10° 17:31:32 10° 150° (SSE) 1,650 5.7 -12.4°
Maximum altitude 17:34:38 27° 91° (E) 942 4.0 -13.0°
Enters shadow 17:35:54 22° 56° (ENE) 1,096 4.2 -13.2°
